Список аэропортов
Фактическая погода:

22 января, 23:20
Температура: 0°C (-3.5*)
Ветер: юго-западный 3 м/с
Давление: *760 мм
Без существ. явл.
Время (МСК)Темп. СВетерВлажностьДавлениеОблачностьОсадки
21:00-0З, 3 м/с98%1015 гПаоблачно
22:00-0З, 3 м/с98%1015 гПаоблачно
23:00-0З, 3 м/с98%1015 гПаоблачно
23 января
00:00-0З, 2 м/с98%1014 гПаоблачно
01:00-0З, 2 м/с98%1014 гПаоблачно
02:00-0З, 2 м/с99%1014 гПаоблачно
03:000З, 2 м/с98%1014 гПаоблачно
04:000ЮЗ, 3 м/с98%1013 гПаоблачно
05:000З, 3 м/с97%1012 гПаоблачно
06:000З, 3 м/с96%1012 гПаоблачно
07:000З, 3 м/с96%1011 гПаоблачно
08:000З, 3 м/с96%1010 гПаоблачно
09:000З, 3 м/с94%1009 гПаоблачно
10:000З, 3 м/с94%1009 гПаоблачно
11:00+1З, 4 м/с94%1008 гПаоблачно
12:00+1З, 3 м/с93%1007 гПаоблачно
13:00+1З, 4 м/с89%1007 гПаоблачно
14:00+2З, 4 м/с85%1007 гПаоблачно
15:00+2З, 4 м/с83%1006 гПаоблачно
16:00+2З, 4 м/с84%1005 гПаоблачно
17:00+2З, 4 м/с87%1005 гПаоблачно
18:00+1З, 3 м/с90%1005 гПас прояснениями
19:00+1З, 3 м/с92%1005 гПас прояснениями
20:00+1З, 3 м/с91%1005 гПаоблачно
21:00+1З, 3 м/с90%1005 гПаоблачно
22:00+1З, 3 м/с91%1005 гПамалооблачно
23:000З, 3 м/с94%1005 гПамалооблачно
24 января
00:00-0З, 3 м/с96%1006 гПамалооблачно
01:00-0З, 3 м/с97%1006 гПамалооблачно
02:00-1З, 3 м/с97%1007 гПамалооблачно
03:00-1З, 3 м/с97%1007 гПамалооблачно
04:00-1СЗ, 3 м/с97%1007 гПас прояснениями
05:00-0СЗ, 2 м/с96%1008 гПаоблачно
06:000СЗ, 3 м/с89%1009 гПаоблачно
07:00+1СЗ, 3 м/с87%1009 гПас прояснениями
08:000СЗ, 3 м/с89%1010 гПаоблачно
09:000СЗ, 3 м/с84%1011 гПаоблачно
10:000С, 3 м/с80%1012 гПаоблачно
11:000С, 3 м/с79%1013 гПаоблачно
12:00-0С, 3 м/с78%1014 гПаоблачно
13:00-0С, 3 м/с75%1015 гПаоблачно
14:00-0С, 4 м/с73%1016 гПаоблачно
15:00-1СВ, 4 м/с66%1017 гПаоблачно
16:00-2СВ, 3 м/с65%1018 гПаоблачно
17:00-3С, 3 м/с73%1020 гПамалооблачно
18:00-4С, 2 м/с82%1021 гПамалооблачно
19:00-5С, 2 м/с88%1022 гПас прояснениями
20:00-6СВ, 2 м/с90%1023 гПамалооблачно
21:00-7С, 2 м/с91%1024 гПаясно